Regional Weather Roundup
Issued by NWS

Home | Current Version | Previous Version | Graphics & Text | Print | Product List | Glossary On
Versions: 1 2 3 4 5 6 7 8 9 10 11 12 13 14 15 16 17 18 19 20 21 22 23 24 25 26 27 28 29 30 31 32 33 34 35 36 37 38 39 40 41 42 43 44 45 46 47 48 49 50
000
ASUS43 KOAX 010002
RWRNE

WEATHER ROUNDUP FOR NEBRASKA
NATIONAL WEATHER SERVICE OMAHA NE
700 PM CDT FRI JUL 31 2015

NOTES: SATELLITE DATA IS BEING USED TO AUGMENT CLOUD COVER ABOVE
       12000 FEET.
       "FAIR" INDICATES FEW OR NO CLOUDS BELOW 12,000 FEET WITH NO
       SIGNIFICANT WEATHER AND/OR OBSTRUCTIONS TO VISIBILITY.

  * THESE STATIONS DO NOT REPORT WEATHER SUCH AS RAIN...SNOW OR FOG.

NEZ001>004-019>022-054>056-010100-
NEBRASKA PANHANDLE

CITY           SKY/WX    TMP DP  RH WIND       PRES   REMARKS
SCOTTSBLUFF    SUNNY     89  46  22 CALM      30.14F
6HR MIN TEMP:  83; 6HR MAX TEMP:  93;

ALLIANCE       MOSUNNY   85  53  33 SE8       30.15F
6HR MIN TEMP:  70; 6HR MAX TEMP:  92; 6HR PCP:  0.14;

CHADRON        SUNNY     91  52  26 S10       30.09F
6HR MIN TEMP:  89; 6HR MAX TEMP:  95;

KIMBALL        MOSUNNY   84  47  27 E7        30.19F
SIDNEY         MOSUNNY   87  45  23 SE8       30.17F
6HR MIN TEMP:  85; 6HR MAX TEMP:  92;

$$

NEZ057>060-069>072-079>082-010100-
SOUTHWEST NEBRASKA

CITY           SKY/WX    TMP DP  RH WIND       PRES   REMARKS
NORTH PLATTE   MOSUNNY   89  60  37 SE3       30.08F
6HR MIN TEMP:  83; 6HR MAX TEMP:  93;

IMPERIAL       SUNNY     93  41  16 VRB3      30.10F
6HR MIN TEMP:  87; 6HR MAX TEMP:  94;

MCCOOK         SUNNY     94  55  26 S7        30.06F HX  92
6HR MIN TEMP:  89; 6HR MAX TEMP:  96;

$$

NEZ005>010-023>029-035>040-094-010100-
NORTH CENTRAL NEBRASKA

CITY           SKY/WX    TMP DP  RH WIND       PRES   REMARKS
VALENTINE      SUNNY     93  48  21 NE12      30.07F
6HR MIN TEMP:  90; 6HR MAX TEMP:  96;

BROKEN BOW     SUNNY     83  62  49 E12G29    30.09R
6HR MIN TEMP:  83; 6HR MAX TEMP:  94;

ORD            PTSUNNY   73  65  75 SE10      30.10R
6HR MIN TEMP:  70; 6HR MAX TEMP:  95; 6HR PCP:  0.52;

$$

NEZ041-046>049-061>064-073>077-083>087-010100-
SOUTH CENTRAL NEBRASKA

CITY           SKY/WX    TMP DP  RH WIND       PRES   REMARKS
GRAND ISLAND   TSTM      70  62  76 N10G31    30.13S
6HR MIN TEMP:  70; 6HR MAX TEMP:  94; 6HR PCP:  0.06;

AURORA         TSTM      66  63  89 E20G26    30.13F
HASTINGS       CLOUDY    78  63  59 NE18G30   30.11R
6HR MIN TEMP:  78; 6HR MAX TEMP:  92;

KEARNEY *      MOSUNNY   84  63  48 NE32G39   30.10R
$$

NEZ011>018-030>034-042>045-010100-
NORTHEAST NEBRASKA

CITY           SKY/WX    TMP DP  RH WIND       PRES   REMARKS
NORFOLK        SUNNY     79  62  56 SW9       30.07S
6HR MIN TEMP:  79; 6HR MAX TEMP:  92;

BLAIR          CLOUDY    83  73  71 N7        30.04F
COLUMBUS *     PTSUNNY   77  61  57 CALM      30.07F
TEKAMAH        PTSUNNY   79  64  60 SW5       30.01F
6HR MIN TEMP:  75; 6HR MAX TEMP:  90; 6HR PCP: TRACE;

$$

NEZ050>053-065>068-078-088>093-010100-
SOUTHEAST NEBRASKA

CITY           SKY/WX    TMP DP  RH WIND       PRES   REMARKS
LINCOLN        CLOUDY    85  66  53 NE9       30.02F
6HR MIN TEMP:  85; 6HR MAX TEMP:  94; 6HR PCP: TRACE;

OMAHA EPPLEY   CLOUDY    85  77  77 N5        30.02F HX  95
6HR MIN TEMP:  85; 6HR MAX TEMP:  93;

FALLS CITY     MOSUNNY   88  74  63 CALM      30.03S HX  96
6HR MIN TEMP:  86; 6HR MAX TEMP:  90;

$$

NEZ044-045-051>053-067-010100-
OMAHA AREA

CITY           SKY/WX    TMP DP  RH WIND       PRES   REMARKS
OMAHA EPPLEY   CLOUDY    85  77  77 N5        30.02F HX  95
6HR MIN TEMP:  85; 6HR MAX TEMP:  93;

BLAIR          CLOUDY    83  73  71 N7        30.04F
OFFUTT AFB     CLOUDY    83  74  73 E7        30.02F HX  90
$$



USA.gov is the U.S. government's official web portal to all federal, state and local government web resources and services.